Lapse_Rate
5.4 5.2 5.1 4.6 4.0 3.3 3.5 3.6 3.1 3.1 3.5 3.0 3.2 2.8 2.2 1.9 1.4 1.5 2.0 3.0 1.5 2.7 2.5 3.6 4.3 5.3 6.1 6.3 5.7 6.1 5.3 7.0 8.3 8.2 8.9 7.8 8.8 9.1 6.8 7.1 6.9 7.1 5.2
4.5 4.1 3.7 4.3 4.4 4.4 4.5 4.3 4.1 4.1 4.2 4.1 4.0 3.9 4.0 3.9 3.5 3.7 4.0 4.0 3.9 4.4 4.9 5.3 5.1 5.2 5.9 6.0 6.2 5.3 5.1 6.6 6.1 7.8 7.0 7.0 7.9 7.7 9.3 7.8 8.0 9.6 9.7
5.6 4.9 3.9 3.8 4.0 4.1 4.3 4.9 5.1 5.4 5.6 5.6 5.9 5.4 5.2 5.2 5.3 5.5 5.3 5.3 4.7 4.6 4.8 5.1 5.0 5.4 5.5 5.4 4.7 5.9 7.2 7.6 7.7 7.8 8.3 8.8 8.1 9.2 8.2 8.0 8.0 8.5 8.6
8.3 6.6 6.3 4.7 4.5 4.6 4.7 4.6 5.0 5.4 5.6 5.9 6.0 6.1 6.1 5.9 6.2 6.4 6.0 5.7 5.3 5.2 5.3 5.5 6.0 6.2 6.3 6.8 6.7 7.1 7.4 7.6 8.5 8.7 9.1 9.0 9.0 8.9 9.3 9.1 8.6 8.8 9.6
8.1 7.9 7.5 7.5 6.2 5.3 5.2 5.8 6.0 6.4 6.6 6.5 6.5 6.7 6.6 6.4 6.5 6.3 6.4 6.3 6.4 6.5 6.6 7.5 7.5 7.6 8.2 8.4 8.1 8.6 8.8 9.0 8.9 8.8 8.8 8.8 8.8 8.9 8.6 8.8 8.8 9.3 9.5
6.3 6.2 6.8 6.1 7.0 7.7 7.7 7.0 7.0 7.0 8.2 8.1 7.8 7.7 7.9 8.3 6.5 7.0 7.0 6.9 7.4 7.8 7.6 7.8 8.3 8.6 8.7 8.3 8.8 8.4 7.3 8.7 8.4 9.1 8.9 8.6 8.1 8.7 9.0 9.2 9.1 8.9 8.6
5.6 5.1 4.9 5.4 5.2 5.4 6.4 7.3 6.7 7.5 8.8 8.6 8.8 9.3 9.2 9.3 6.0 6.3 7.2 7.8 7.9 7.7 7.7 8.2 8.5 9.4 8.5 8.6 7.2 7.1 6.4 6.4 5.9 7.1 7.8 8.5 8.9 9.2 9.1 8.6 8.8 8.8 8.9
5.7 5.7 6.1 6.9 6.2 5.8 5.9 6.1 6.1 6.8 8.7 8.8 9.3 9.3 8.1 9.3 6.3 6.2 6.8 8.1 8.2 8.8 9.0 9.1 9.1 8.8 9.0 8.7 8.1 8.1 8.2 8.2 7.7 7.9 7.4 7.8 8.5 8.7 9.0 9.1 9.0 8.9 9.2
6.6 6.4 7.0 7.9 7.0 8.1 6.9 6.4 5.9 6.5 6.8 8.4 8.3 8.7 9.0 8.9 6.1 6.1 7.9 9.0 8.2 8.7 9.5 9.2 9.1 9.1 7.9 6.6 8.8 8.8 8.8 8.9 8.1 7.6 7.3 6.3 5.9 5.8 6.5 8.2 9.0 9.1 8.8
7.3 6.9 8.3 6.8 6.9 8.9 6.9 6.4 6.3 6.7 6.9 7.0 7.9 8.0 8.3 9.0 5.4 5.4 6.9 8.6 8.6 8.8 9.2 8.6 7.1 7.2 5.2 5.0 7.7 8.1 8.0 8.4 8.9 8.2 7.1 6.1 5.2 5.9 5.8 6.4 8.3 8.9 8.9
7.7 8.0 8.0 7.7 7.7 8.0 7.5 6.7 6.7 6.8 7.6 7.5 7.9 9.0 9.4 9.4 7.8 4.8 5.1 8.8 9.4 9.1 9.1 9.0 8.8 4.8 3.8 2.9 3.8 7.5 7.9 7.4 8.4 8.9 9.1 9.6 9.5 9.3 9.2 7.7 7.7 8.6 9.2
9.0 8.6 7.5 7.7 7.5 9.3 9.1 8.3 7.9 8.7 9.0 8.8 8.9 9.1 9.3 9.1 7.0 4.8 3.7 3.7 6.2 8.5 8.6 9.1 8.8 4.1 3.1 2.6 3.0 4.6 4.0 4.7 8.9 9.4 9.3 9.3 9.4 9.5 9.7 9.7 9.2 8.5 9.5
7.6 9.0 9.1 8.1 8.4 9.1 7.7 8.2 9.0 9.1 9.2 9.1 9.2 9.2 9.0 9.3 7.9 4.4 3.2 2.7 3.2 6.0 7.6 6.1 3.7 2.5 2.6 2.5 2.1 2.9 2.2 7.4 9.2 9.2 9.1 9.2 9.6 9.8 9.3 9.2 9.3 9.3 8.9
8.8 8.9 9.3 9.1 9.1 9.3 9.1 7.8 7.5 7.3 7.1 7.5 7.7 7.3 7.0 6.7 6.8 7.0 6.5 5.4 2.9 5.5 6.1 7.3 7.6 6.8 6.4 6.6 6.3 4.8 6.4 7.9 9.4 9.3 9.3 9.5 9.8 9.7 9.6 9.9 9.7 9.7 9.7
9.1 8.1 8.0 7.9 9.1 9.2 9.4 9.3 9.3 8.3 6.8 6.8 7.4 7.2 7.7 7.4 7.9 6.3 8.2 9.3 9.4 7.8 8.7 9.4 9.0 9.4 9.3 9.4 9.5 9.6 9.5 9.6 9.4 9.5 9.5 9.4 9.5 9.5 9.5 9.7 9.7 9.6 9.2
8.9 9.1 8.8 9.2 7.9 9.3 8.9 9.2 3.9 4.4 4.0 3.1 3.4 4.7 5.8 5.3 2.8 2.9 2.0 3.5 4.2 3.8 8.4 9.2 9.3 9.3 9.2 9.3 9.3 9.3 9.5 8.9 9.5 9.6 9.5 9.5 9.4 9.5 9.6 9.4 9.1 9.2 9.3
8.0 8.7 9.2 8.4 9.1 9.0 9.1 8.8 7.7 5.5 -0.2 -0.3 1.1 1.4 -0.8 2.8 1.7 2.7 2.3 0.8 1.2 1.5 9.0 9.3 9.2 9.3 9.3 9.4 9.4 9.5 9.4 9.5 9.5 9.5 9.4 9.4 9.6 9.6 8.9 9.5 9.1 8.8 8.8
9.2 6.7 9.1 8.7 9.3 9.1 9.3 9.0 8.5 9.1 8.8 9.0 0.6 2.0 -1.3 -1.8 -1.3 0.1 -0.2 -0.2 7.1 5.1 9.0 9.4 9.3 9.4 9.5 9.4 9.5 9.5 9.5 9.5 9.5 9.5 9.5 9.2 8.7 8.9 8.9 8.9 8.5 8.1 8.8
9.4 9.5 9.4 9.4 9.5 8.8 9.4 9.3 9.4 9.2 9.1 9.2 9.4 1.2 1.2 -1.8 -1.6 -1.1 -1.1 8.3 9.4 9.5 9.4 9.5 9.5 9.5 9.5 9.5 9.5 9.6 9.5 9.4 9.0 9.3 9.3 8.8 8.5 8.2 8.9 9.1 8.5 6.2 6.5
9.4 6.5 6.0 9.4 9.4 9.3 9.3 9.4 9.1 9.2 9.1 9.1 9.1 9.2 9.3 3.0 5.4 6.1 5.7 7.5 9.4 9.6 9.6 9.6 9.6 9.6 9.5 9.6 9.6 9.5 9.5 9.4 9.4 8.6 8.6 9.2 8.9 8.1 8.7 9.1 8.9 8.4 8.4
9.5 9.3 7.1 9.5 9.5 9.4 9.4 9.2 9.2 9.2 9.2 9.2 9.2 8.8 4.7 8.3 9.3 9.3 9.4 9.4 9.5 9.6 9.6 9.6 9.8 9.8 9.7 9.6 9.7 9.5 9.4 9.4 9.5 9.5 9.4 9.1 8.4 7.9 8.1 6.2 6.5 6.4 6.8
9.4 9.3 8.6 9.0 9.3 9.3 9.3 9.3 9.3 9.3 9.3 9.3 9.3 8.5 -1.2 8.3 9.5 9.5 9.5 9.6 9.6 9.8 9.9 9.7 9.8 9.8 9.7 9.7 9.4 9.4 9.6 9.5 9.3 9.0 9.1 9.1 8.5 5.8 6.2 6.3 6.3 6.4 7.5
8.9 9.0 9.2 8.6 8.2 7.4 8.8 9.4 9.5 9.1 9.3 9.3 9.4 9.3 8.2 9.3 9.4 8.4 9.4 9.7 9.7 9.8 9.8 9.6 9.7 9.8 9.8 8.4 8.1 6.7 7.9 8.1 8.6 8.4 8.7 8.3 8.2 7.7 6.6 6.6 7.7 9.0 8.8
8.6 8.4 8.0 9.0 4.4 5.5 7.1 9.3 9.5 6.4 8.9 9.3 9.7 9.7 9.3 8.7 9.8 9.4 9.6 9.0 9.7 9.4 8.8 8.4 8.1 7.8 7.5 7.0 7.0 7.1 8.7 7.4 7.0 7.6 7.5 7.5 7.6 6.4 6.5 8.2 9.1 9.2 9.4
6.9 7.5 7.4 7.5 8.9 8.8 7.4 7.2 9.9 9.0 9.6 10.0 9.8 9.9 9.7 9.2 4.8 5.4 4.8 8.2 8.7 7.1 5.2 5.6 5.2 5.1 6.1 6.8 7.2 6.3 2.5 2.9 4.4 4.1 5.8 7.1 7.4 8.9 9.5 9.5 9.5 9.4 9.5
0.8 1.2 2.1 4.7 7.5 7.7 5.9 5.3 7.7 8.5 6.7 7.8 9.4 8.3 6.6 4.5 5.2 5.6 4.8 5.8 5.3 5.8 5.7 6.3 6.6 7.0 7.3 8.5 5.1 2.4 2.7 3.4 4.7 3.4 5.3 8.3 9.7 9.6 9.6 9.6 9.5 9.6 9.5
Wind_Speed
5 5 5 5 6 6 4 3 5 6 4 6 5 7 7 8 8 8 8 8 12 7 8 8 9 7 4 2 2 4 4 2 5 9 7 8 3 2 9 7 7 6 13
4 5 7 8 7 6 7 7 6 5 6 7 6 7 7 7 7 8 10 9 11 10 8 9 8 8 9 6 5 5 6 3 9 10 10 5 5 6 6 7 6 6 5
3 4 5 6 6 6 6 6 6 7 6 6 7 8 7 7 7 7 8 9 11 10 9 9 10 11 8 7 7 5 6 6 7 6 6 7 6 7 6 6 7 8 9
5 4 5 6 6 5 5 5 5 5 6 7 7 7 7 8 7 7 7 9 9 8 8 8 8 9 6 8 7 6 4 2 4 6 7 6 7 8 5 6 6 7 7
5 6 6 6 6 6 5 5 6 6 6 6 7 6 6 6 5 7 7 7 7 8 8 9 7 11 16 10 5 4 4 2 5 5 6 5 5 6 7 7 6 4 5
6 6 5 7 5 2 6 5 6 8 10 10 9 9 9 6 11 12 9 6 7 7 8 8 7 9 6 4 6 5 1 5 7 6 6 7 7 3 3 5 7 7 8
5 4 4 1 2 1 2 5 6 8 9 10 11 10 10 9 14 11 11 8 9 8 9 8 9 7 8 7 5 4 2 1 2 4 5 2 3 5 5 5 6 6 8
5 4 5 5 5 5 3 1 3 4 5 8 8 9 8 9 12 11 12 8 7 6 6 6 8 9 9 8 7 6 5 6 5 4 4 6 6 6 5 5 6 7 8
6 6 7 8 7 8 7 4 2 3 4 3 5 4 9 12 8 6 5 7 5 7 9 7 6 7 8 5 5 8 8 7 10 14 12 6 4 5 4 5 9 9 10
6 7 7 10 8 6 7 6 3 3 1 2 1 2 1 7 9 7 5 4 5 4 3 4 6 8 7 9 7 7 7 8 9 9 7 8 12 13 15 12 9 9 10
8 8 6 3 2 9 9 6 8 8 9 9 10 9 9 8 11 11 9 7 5 5 7 8 9 14 10 9 9 8 8 6 5 4 7 7 8 10 12 17 17 10 10
11 7 5 3 6 5 9 12 13 11 9 8 8 8 8 8 9 9 11 11 10 8 7 7 5 13 15 13 8 10 3 6 7 8 8 8 9 9 9 11 14 19 19
9 10 9 8 9 11 9 8 6 8 7 7 7 7 6 8 8 13 15 14 15 12 9 3 2 6 7 7 10 7 6 8 9 9 9 9 8 8 8 7 12 15 18
13 10 10 11 11 11 8 6 7 6 6 6 7 6 6 6 7 7 10 9 14 10 14 11 9 6 8 6 7 10 10 10 9 9 9 10 9 8 9 9 9 9 10
11 10 10 9 12 11 10 9 10 12 9 7 8 8 9 9 10 12 11 11 11 13 11 10 7 8 8 9 9 10 9 9 9 9 10 10 10 10 10 9 9 9 11
10 10 9 10 10 11 9 9 9 8 5 9 9 5 2 3 7 12 10 8 4 4 10 8 8 9 9 9 9 10 10 11 9 9 10 10 11 11 10 9 9 10 11
8 6 8 9 8 8 9 7 7 7 6 9 11 10 9 7 2 5 7 8 7 4 8 9 9 10 9 9 9 9 9 9 7 9 10 11 10 10 9 10 9 10 11
14 11 9 7 9 8 9 10 8 11 10 11 13 12 11 11 10 8 8 6 6 6 9 10 10 10 9 9 9 9 9 9 9 10 10 9 7 6 8 9 10 10 11
13 11 11 11 10 10 10 11 11 11 12 12 11 8 12 8 9 9 10 9 9 10 10 11 11 11 10 9 9 10 10 10 8 9 11 10 10 8 11 11 11 12 11
13 14 12 11 11 12 11 11 11 12 11 9 9 12 13 8 8 10 11 12 12 11 11 11 11 11 11 10 10 9 7 8 9 7 7 8 7 7 9 10 10 11 10
11 13 13 12 12 11 12 12 12 11 11 11 11 11 9 13 12 12 13 14 13 12 13 11 11 11 10 10 9 7 5 5 6 7 7 7 8 8 9 7 8 8 9
12 12 10 13 13 13 12 10 12 11 12 12 11 12 18 13 12 12 11 10 12 13 9 9 10 8 6 7 7 7 7 7 7 8 8 9 8 6 7 8 8 9 11
11 12 12 10 12 13 12 12 11 10 13 15 14 12 8 12 10 7 11 10 10 10 7 1 4 6 5 9 7 5 6 6 5 5 6 6 6 5 5 7 9 10 10
10 8 9 13 3 4 12 13 13 14 14 13 13 14 10 11 13 13 11 7 10 3 4 4 2 4 4 2 2 1 3 5 6 7 7 5 5 6 7 8 9 12 10
8 10 13 13 12 11 16 21 16 13 14 15 15 14 14 12 4 4 5 2 5 6 5 4 4 5 5 2 0 2 6 3 4 6 8 8 8 10 9 9 11 11 13
10 10 10 9 7 9 6 7 11 10 5 12 14 13 4 3 7 8 9 6 4 5 7 6 7 6 5 4 8 9 4 3 4 5 10 10 9 9 9 9 14 11 14
Wind_Direction
23 24 14 28 36 50 57 89 85 90 98 102 122 129 116 119 103 95 94 83 83 60 76 46 18 2 315 49 68 149 132 266 210 125 133 133 189 208 146 212 170 217 180
46 50 47 42 42 61 59 71 80 86 94 96 92 84 83 86 101 111 117 108 94 74 59 73 59 45 10 359 77 86 84 17 109 142 130 137 200 225 198 206 242 238 244
71 93 90 82 75 66 75 68 86 84 91 110 116 91 92 83 83 90 97 100 86 82 70 50 53 53 41 24 23 40 66 102 107 112 140 163 192 193 210 242 234 233 254
139 124 117 114 106 97 89 95 90 99 104 88 90 98 84 91 94 99 92 84 85 83 79 77 66 64 45 29 357 4 29 80 157 137 178 182 194 186 216 239 210 212 238
26 122 133 141 143 137 131 131 136 131 129 122 119 116 115 108 102 100 99 104 116 135 150 142 166 164 177 179 174 179 189 153 175 173 182 190 192 177 202 219 225 278 265
82 57 48 45 26 171 163 170 164 176 171 163 154 153 158 157 150 149 140 152 154 168 163 167 167 164 157 116 139 125 8 171 190 196 200 208 210 186 263 254 247 248 263
123 114 105 132 113 94 192 217 226 212 186 177 171 168 168 153 168 187 189 169 169 188 169 173 164 176 179 183 190 206 208 40 330 335 288 300 252 230 266 288 271 262 258
165 186 182 191 174 174 175 111 34 299 205 173 178 173 159 155 171 179 186 178 178 166 149 161 198 161 200 187 186 199 223 228 240 241 247 276 283 299 263 269 279 286 274
196 212 223 190 194 183 183 191 93 9 9 105 107 146 161 143 157 158 173 158 167 185 202 205 208 186 187 200 222 207 215 229 206 213 229 257 287 313 312 293 266 262 271
216 226 237 170 195 168 183 184 140 242 160 59 52 200 182 159 140 143 196 234 196 213 205 250 249 252 184 192 213 237 241 245 233 201 215 237 250 250 243 238 263 270 274
213 220 242 118 238 161 175 182 192 207 192 191 189 204 190 190 166 177 196 242 241 209 230 214 216 209 200 205 208 234 250 301 276 252 267 250 229 222 225 215 222 236 260
188 194 158 168 191 222 198 186 193 198 190 192 198 195 201 208 225 196 200 215 231 252 267 257 243 197 201 202 202 234 268 292 261 258 259 253 251 254 254 246 234 220 238
193 192 186 180 218 192 221 229 222 206 224 210 204 204 209 203 215 209 207 211 231 248 262 314 298 143 153 190 218 221 211 242 248 251 251 254 255 258 268 281 268 260 260
191 195 190 190 207 211 210 215 223 212 226 225 216 206 213 227 220 213 217 221 234 242 247 245 222 191 224 250 209 214 230 242 244 249 256 262 273 280 271 263 265 265 268
199 193 207 217 211 223 225 220 214 204 196 211 217 212 207 214 212 198 204 211 213 210 226 231 206 227 226 223 228 236 219 225 237 250 265 274 268 268 269 266 266 271 270
219 227 209 201 211 207 209 211 198 139 173 182 173 208 146 179 218 183 145 135 107 135 207 248 238 236 232 231 227 224 221 226 242 250 255 260 267 273 278 281 279 278 281
234 227 239 221 231 220 194 208 212 200 188 192 192 213 194 145 97 147 151 145 145 172 239 255 243 249 242 240 246 249 250 251 252 258 269 274 273 270 270 274 285 284 281
214 217 224 217 252 209 220 196 211 225 212 222 222 218 213 186 182 181 150 159 206 220 252 246 247 251 248 248 248 251 255 260 262 264 270 278 285 287 291 288 290 297 300
220 225 211 244 228 234 224 210 229 234 209 225 214 182 216 171 176 175 168 221 233 234 214 226 245 257 259 260 263 266 265 269 282 304 302 309 313 320 308 307 311 306 314
222 241 233 217 219 232 231 236 229 229 225 240 235 189 189 153 190 196 203 213 232 248 261 254 237 235 242 249 255 260 286 295 301 330 330 331 324 322 303 304 313 308 302
220 217 213 239 246 231 223 228 234 236 230 234 229 236 163 185 200 213 211 212 220 229 229 242 258 258 253 261 276 294 304 315 305 313 317 320 301 304 314 304 293 285 288
224 228 200 213 230 238 235 236 229 240 268 254 241 239 164 198 222 233 238 241 218 228 238 242 246 257 292 313 346 346 324 324 334 321 302 304 311 312 294 290 290 288 283
220 214 236 223 221 240 240 224 225 238 222 237 255 262 198 216 227 252 272 241 245 256 254 304 297 287 332 20 18 351 324 318 313 311 302 296 286 292 295 286 286 288 292
257 240 244 242 185 298 293 243 239 240 250 241 231 241 239 198 234 221 230 251 254 219 69 66 42 23 14 333 59 255 277 342 320 317 336 306 289 283 285 275 284 285 284
277 259 255 256 250 224 207 235 252 258 240 227 239 249 242 247 118 92 356 347 91 94 100 108 114 112 131 149 342 327 72 0 306 319 285 273 263 269 282 278 285 296 309
20 6 12 352 301 287 303 313 298 257 278 298 229 220 219 62 107 101 109 131 134 126 123 132 146 147 171 172 76 59 40 320 303 320 300 290 277 267 272 302 312 311 308